Location: Friedrichshafen
(47.6598°N, 9.4819°E)
Time: 08:23:51
(UTC+01:00)

ISS - Pass Details

Date: 13 January 2018
Orbit: 402 x 406 km, 51.6° (Epoch: 16 January)

Event Time Altitude Azimuth Distance (km) Brightness Sun altitude
Exits shadow 07:07:20 12° 265° (W) 1,349 -1.7 -9.8°
Maximum altitude 07:09:23 19° 221° (SW) 1,020 -2.0 -9.5°
Drops below altitude 10° 07:11:49 10° 173° (S) 1,458 -0.6 -9.1°
Sets 07:14:15 0° 155° (SSE) 2,314 0.8 -8.8°
